When you browse on this site, cookies collect data to enhance your experience and personalize the content and advertising you see.
Visit our Privacy Policy to learn more. By continuing to use the site, you agree to this use of cookies and data.
  • In Sweden
  • List of Countries
  • For 7 days
  • Water Temperature
  • Weather Map
  • Weather Widgets
  • user-avatar
    Login

    Hourly Weather La Paz

    Today, 3 April, Friday

    Time Temperature Precipitation Wind Pressure Humidity
    00:00 +20°C° 0 mm 4 mps 756 mmHg 63%
    01:00 +19°C° 0 mm 3 mps 756 mmHg 63%
    02:00 +19°C° 0 mm 3 mps 756 mmHg 64%
    03:00 +19°C° 0 mm 3 mps 756 mmHg 62%
    04:00 +19°C° 0 mm 3 mps 755 mmHg 61%
    05:00 +19°C° 0 mm 3 mps 755 mmHg 59%
    06:00 +20°C° 0 mm 3 mps 756 mmHg 52%
    07:00 +23°C° 0 mm 2 mps 756 mmHg 45%
    08:00 +25°C° 0 mm 2 mps 757 mmHg 38%
    09:00 +27°C° 0 mm 2 mps 757 mmHg 33%
    10:00 +29°C° 0 mm 2 mps 757 mmHg 28%
    11:00 +31°C° 0 mm 2 mps 757 mmHg 23%
    12:00 +31°C° 0 mm 2 mps 757 mmHg 24%
    13:00 +31°C° 0 mm 3 mps 756 mmHg 25%
    14:00 +33°C° 0 mm 3 mps 756 mmHg 26%
    15:00 +31°C° 0 mm 3 mps 755 mmHg 27%
    16:00 +31°C° 0 mm 3 mps 755 mmHg 28%
    17:00 +30°C° 0 mm 3 mps 755 mmHg 29%
    18:00 +28°C° 0 mm 4 mps 755 mmHg 38%
    19:00 +25°C° 0 mm 4 mps 755 mmHg 47%
    20:00 +22°C° 0 mm 4 mps 756 mmHg 55%
    21:00 +21°C° 0 mm 5 mps 756 mmHg 57%
    22:00 +21°C° 0 mm 5 mps 756 mmHg 58%
    23:00 +21°C° 0 mm 5 mps 756 mmHg 60%

    Tomorrow, 4 April, Saturday

    Time Temperature Precipitation Wind Pressure Humidity
    00:00 +20°C° 0 mm 5 mps 756 mmHg 58%
    01:00 +20°C° 0 mm 4 mps 756 mmHg 57%
    02:00 +20°C° 0 mm 4 mps 755 mmHg 56%
    03:00 +20°C° 0 mm 4 mps 755 mmHg 54%
    04:00 +19°C° 0 mm 3 mps 755 mmHg 53%
    05:00 +19°C° 0 mm 3 mps 755 mmHg 51%
    06:00 +21°C° 0 mm 2 mps 755 mmHg 46%
    07:00 +23°C° 0 mm 2 mps 756 mmHg 40%
    08:00 +25°C° 0 mm 1 mps 756 mmHg 35%
    09:00 +26°C° 0 mm 2 mps 756 mmHg 30%
    10:00 +28°C° 0 mm 2 mps 757 mmHg 26%
    11:00 +30°C° 0 mm 2 mps 757 mmHg 22%
    12:00 +31°C° 0 mm 2 mps 756 mmHg 23%
    13:00 +31°C° 0 mm 3 mps 756 mmHg 25%
    14:00 +31°C° 0 mm 3 mps 755 mmHg 27%
    15:00 +30°C° 0 mm 3 mps 755 mmHg 29%
    16:00 +30°C° 0 mm 3 mps 755 mmHg 31%
    17:00 +29°C° 0 mm 3 mps 755 mmHg 32%
    18:00 +28°C° 0 mm 3 mps 755 mmHg 36%
    19:00 +26°C° 0 mm 2 mps 755 mmHg 39%
    20:00 +25°C° 0 mm 2 mps 755 mmHg 43%
    21:00 +25°C° 0 mm 2 mps 756 mmHg 45%
    22:00 +24°C° 0 mm 3 mps 756 mmHg 47%
    23:00 +24°C° 0 mm 3 mps 756 mmHg 49%

    Day after tomorrow, 5 April, Sunday

    Time Temperature Precipitation Wind Pressure Humidity
    00:00 +22°C° 0 mm 3 mps 756 mmHg 48%
    01:00 +22°C° 0 mm 3 mps 756 mmHg 46%
    02:00 +23°C° 0 mm 2 mps 755 mmHg 45%
    03:00 +23°C° 0 mm 2 mps 755 mmHg 43%
    04:00 +23°C° 0 mm 2 mps 755 mmHg 41%
    05:00 +23°C° 0 mm 2 mps 755 mmHg 39%
    06:00 +24°C° 0 mm 2 mps 756 mmHg 37%
    07:00 +25°C° 0 mm 1 mps 756 mmHg 35%
    08:00 +25°C° 0 mm 1 mps 757 mmHg 33%
    09:00 +27°C° 0 mm 1 mps 757 mmHg 29%
    10:00 +28°C° 0 mm 1 mps 757 mmHg 26%
    11:00 +30°C° 0 mm 1 mps 757 mmHg 23%
    12:00 +31°C° 0 mm 2 mps 757 mmHg 22%
    13:00 +32°C° 0 mm 2 mps 756 mmHg 21%
    14:00 +33°C° 0 mm 3 mps 756 mmHg 20%
    15:00 +33°C° 0 mm 3 mps 755 mmHg 23%
    16:00 +31°C° 0 mm 3 mps 755 mmHg 25%
    17:00 +30°C° 0 mm 3 mps 755 mmHg 28%
    18:00 +28°C° 0 mm 3 mps 755 mmHg 33%
    19:00 +26°C° 0 mm 3 mps 756 mmHg 38%
    20:00 +24°C° 0 mm 3 mps 756 mmHg 43%
    21:00 +24°C° 0 mm 3 mps 756 mmHg 44%
    22:00 +22°C° 0 mm 3 mps 757 mmHg 45%
    23:00 +22°C° 0 mm 3 mps 757 mmHg 45%

    6 April, Monday

    Time Temperature Precipitation Wind Pressure Humidity
    00:00 +22°C° 0 mm 3 mps 757 mmHg 44%
    01:00 +22°C° 0 mm 3 mps 757 mmHg 44%
    02:00 +22°C° 0 mm 3 mps 756 mmHg 43%
    03:00 +22°C° 0 mm 3 mps 757 mmHg 42%
    04:00 +23°C° 0 mm 2 mps 757 mmHg 41%
    05:00 +23°C° 0 mm 2 mps 757 mmHg 40%
    06:00 +24°C° 0 mm 2 mps 757 mmHg 36%
    07:00 +24°C° 0 mm 2 mps 758 mmHg 32%
    08:00 +25°C° 0 mm 1 mps 758 mmHg 28%
    09:00 +27°C° 0 mm 1 mps 758 mmHg 26%
    10:00 +28°C° 0 mm 2 mps 758 mmHg 24%
    11:00 +30°C° 0 mm 2 mps 759 mmHg 23%
    12:00 +31°C° 0 mm 2 mps 758 mmHg 24%
    13:00 +31°C° 0 mm 3 mps 758 mmHg 26%
    14:00 +33°C° 0 mm 3 mps 758 mmHg 28%
    15:00 +31°C° 0 mm 3 mps 757 mmHg 30%
    16:00 +30°C° 0 mm 4 mps 757 mmHg 33%
    17:00 +29°C° 0 mm 4 mps 757 mmHg 35%
    18:00 +28°C° 0 mm 4 mps 757 mmHg 38%
    19:00 +26°C° 0 mm 4 mps 758 mmHg 40%
    20:00 +25°C° 0 mm 3 mps 758 mmHg 43%
    21:00 +24°C° 0 mm 3 mps 758 mmHg 45%
    22:00 +24°C° 0 mm 3 mps 759 mmHg 47%
    23:00 +22°C° 0 mm 3 mps 759 mmHg 50%

    7 April, Tuesday

    Time Temperature Precipitation Wind Pressure Humidity
    00:00 +22°C° 0 mm 3 mps 759 mmHg 50%
    01:00 +22°C° 0 mm 3 mps 758 mmHg 50%
    02:00 +21°C° 0 mm 3 mps 758 mmHg 50%
    03:00 +21°C° 0 mm 3 mps 758 mmHg 49%
    04:00 +21°C° 0 mm 4 mps 758 mmHg 48%
    05:00 +21°C° 0 mm 4 mps 758 mmHg 47%
    06:00 +22°C° 0 mm 3 mps 758 mmHg 42%
    07:00 +24°C° 0 mm 3 mps 759 mmHg 38%
    08:00 +25°C° 0 mm 3 mps 759 mmHg 33%
    09:00 +27°C° 0 mm 3 mps 759 mmHg 31%
    10:00 +29°C° 0 mm 3 mps 760 mmHg 28%
    11:00 +30°C° 0 mm 3 mps 760 mmHg 26%
    12:00 +32°C° 0 mm 4 mps 760 mmHg 26%
    13:00 +32°C° 0 mm 4 mps 759 mmHg 26%
    14:00 +32°C° 0 mm 5 mps 759 mmHg 25%
    15:00 +32°C° 0 mm 4 mps 759 mmHg 27%
    16:00 +30°C° 0 mm 4 mps 758 mmHg 30%
    17:00 +29°C° 0 mm 4 mps 758 mmHg 32%
    18:00 +28°C° 0 mm 4 mps 759 mmHg 36%
    19:00 +26°C° 0 mm 4 mps 759 mmHg 41%
    20:00 +25°C° 0 mm 4 mps 760 mmHg 46%
    21:00 +23°C° 0 mm 4 mps 760 mmHg 47%
    22:00 +24°C° 0 mm 3 mps 760 mmHg 48%
    23:00 +22°C° 0 mm 3 mps 760 mmHg 49%

    8 April, Wednesday

    Time Temperature Precipitation Wind Pressure Humidity
    00:00 +22°C° 0 mm 3 mps 760 mmHg 49%
    01:00 +21°C° 0 mm 4 mps 759 mmHg 49%
    02:00 +21°C° 0 mm 4 mps 759 mmHg 49%
    03:00 +21°C° 0 mm 4 mps 759 mmHg 50%
    04:00 +20°C° 0 mm 4 mps 759 mmHg 50%
    05:00 +20°C° 0 mm 4 mps 759 mmHg 50%
    06:00 +20°C° 0 mm 3 mps 760 mmHg 48%
    07:00 +21°C° 0 mm 3 mps 760 mmHg 47%
    08:00 +21°C° 0 mm 3 mps 761 mmHg 45%
    09:00 +22°C° 0 mm 4 mps 761 mmHg 42%
    10:00 +25°C° 0 mm 4 mps 761 mmHg 39%
    11:00 +27°C° 0 mm 5 mps 761 mmHg 36%
    12:00 +27°C° 0 mm 5 mps 761 mmHg 37%
    13:00 +27°C° 0 mm 5 mps 760 mmHg 37%
    14:00 +27°C° 0 mm 5 mps 760 mmHg 37%
    15:00 +27°C° 0 mm 4 mps 760 mmHg 40%
    16:00 +26°C° 0 mm 4 mps 759 mmHg 43%
    17:00 +26°C° 0 mm 3 mps 759 mmHg 45%
    18:00 +23°C° 0 mm 4 mps 760 mmHg 51%
    19:00 +22°C° 0 mm 4 mps 760 mmHg 56%
    20:00 +21°C° 0 mm 4 mps 760 mmHg 62%
    21:00 +20°C° 0 mm 4 mps 760 mmHg 66%
    22:00 +20°C° 0 mm 4 mps 761 mmHg 69%
    23:00 +19°C° 0 mm 5 mps 761 mmHg 73%
    Show more